RH
23 22 19 18 16 13 11 9 5 4 3 3 2 2 2 2 1 1 1 1 1 2 2 7 16 39 28 80 97 96 81 98 91 75 59 22 20 82 22 24 26 16 21 31 21
23 22 20 18 17 14 12 10 11 6 4 3 2 2 2 2 1 1 1 1 1 2 5 10 12 15 19 69 96 97 76 86 80 67 47 25 52 10 8 18 27 15 12 29 28
17 21 20 20 18 17 14 11 7 10 5 4 3 2 2 2 1 1 1 1 2 3 4 20 17 5 34 90 84 95 56 49 20 40 47 86 93 15 11 8 7 6 13 31 25
12 15 18 18 18 16 15 13 8 7 10 5 4 3 2 2 2 1 1 1 2 2 4 10 20 54 91 97 66 90 39 10 13 34 39 71 56 42 13 9 9 8 12 20 26
12 12 12 16 16 15 14 13 10 6 9 8 5 3 2 2 2 2 1 1 2 2 4 11 11 47 97 86 67 94 28 10 39 89 39 64 95 66 12 11 11 11 15 23 26
11 10 10 11 14 15 14 13 10 6 8 9 6 4 3 2 2 2 2 1 2 2 2 3 5 58 61 49 32 54 43 57 78 47 32 70 70 80 13 12 14 14 17 24 28
10 9 9 9 10 12 14 14 9 6 7 7 7 4 3 3 3 2 2 2 1 2 2 2 2 12 7 24 46 45 90 79 81 60 13 11 20 30 4 9 14 16 9 7 8
13 11 10 10 11 13 14 10 5 6 6 6 5 4 3 3 3 3 2 2 2 1 2 2 2 5 9 59 82 95 95 81 76 62 31 19 8 6 6 10 60 18 13 10 8
4 6 8 9 9 6 3 3 4 5 6 5 5 4 3 3 2 2 2 2 2 2 2 2 2 10 31 69 74 96 80 83 70 50 29 55 26 23 28 13 60 25 21 27 12
6 6 6 3 3 2 2 2 4 5 4 3 2 2 3 3 2 2 2 2 2 2 2 2 16 20 29 74 77 74 75 69 64 52 53 20 13 5 7 3 88 74 20 17 16
7 7 7 6 3 2 2 3 4 4 2 2 2 2 2 3 3 2 2 2 2 2 2 3 19 18 44 82 79 61 58 60 53 64 63 25 18 10 4 13 74 56 44 29 30
12 8 6 7 4 2 3 4 3 2 2 2 2 2 2 3 3 2 2 3 2 2 2 2 9 30 84 92 90 80 64 58 62 67 66 21 16 61 12 4 21 61 78 87 73
17 12 8 7 5 2 3 3 2 2 2 3 3 3 3 3 3 3 3 2 2 2 2 3 18 44 80 75 37 35 44 57 65 63 63 47 42 49 46 43 14 16 26 50 49
15 16 12 7 6 2 3 2 2 2 3 3 3 3 3 3 3 3 3 2 2 2 2 6 10 67 78 17 4 46 58 61 61 60 57 56 46 45 48 43 25 30 37 36 47
12 13 14 8 6 4 3 3 2 2 3 4 2 3 3 3 3 2 2 2 2 2 2 18 19 51 38 4 3 18 55 58 56 42 61 46 47 43 46 57 36 35 46 24 37
10 10 12 11 7 4 3 3 3 3 4 15 6 3 3 2 2 2 2 3 3 2 2 6 33 33 17 21 3 4 17 16 62 66 67 75 75 61 56 67 43 60 55 35 47
11 10 10 11 7 5 3 3 3 4 10 11 16 4 3 3 2 3 2 2 3 2 3 3 7 4 3 3 4 5 19 44 58 67 87 71 90 85 66 64 52 47 54 41 70
10 9 10 10 9 5 4 3 4 15 67 68 31 7 3 3 3 3 3 3 3 3 8 27 34 32 39 18 5 8 54 61 62 83 88 85 87 87 79 83 56 61 61 57 68
11 10 10 11 10 6 4 4 38 29 71 78 65 33 4 4 5 3 3 3 3 3 4 32 38 54 45 25 9 31 62 84 95 78 95 93 97 96 94 88 64 76 65 56 65
12 11 12 12 11 8 5 11 52 62 66 87 71 52 19 10 25 21 9 4 3 3 26 55 65 72 60 63 54 25 65 71 82 72 88 74 58 51 95 69 78 60 74 70 73
14 12 14 13 12 10 6 30 65 57 57 91 91 85 74 50 46 40 38 17 8 5 39 57 65 73 71 68 61 56 59 63 58 56 60 52 47 58 57 70 80 58 53 50 51
17 15 15 14 12 11 8 24 66 53 66 91 78 81 76 56 50 50 45 41 48 40 42 42 62 60 69 80 74 82 81 58 59 56 48 77 49 82 61 44 48 59 64 45 41
18 17 17 16 15 13 13 23 68 27 43 83 71 79 77 72 74 58 54 55 55 55 57 27 32 54 57 65 76 81 81 68 65 46 82 86 86 73 54 39 45 39 24 18 19
20 20 19 18 19 16 13 18 50 38 23 30 54 68 99 98 94 81 88 72 61 61 63 60 31 26 59 60 71 85 97 74 74 52 67 94 91 48 29 23 28 22 21 19 12
21 25 17 18 18 24 24 15 21 80 29 21 14 14 79 95 98 77 83 78 66 80 76 58 57 48 78 72 63 66 62 57 79 80 92 95 69 42 40 34 23 26 17 10 5
19 19 37 34 18 24 67 70 39 44 35 28 13 18 52 74 87 97 96 93 67 43 70 80 58 36 57 55 56 42 43 66 76 76 94 62 43 48 52 53 35 23 15 8 5
29 27 34 58 38 25 35 32 23 22 30 42 80 56 19 36 39 76 89 93 83 87 84 69 50 90 90 82 89 74 83 76 88 65 93 86 84 57 35 45 30 20 9 5 5
Wind_Speed
7 7 6 4 3 1 0 1 1 3 3 2 2 2 2 4 5 5 5 7 8 9 12 17 18 19 14 21 15 15 14 9 6 11 12 13 15 14 17 16 16 13 10 10 9
8 7 6 5 3 2 2 3 3 3 3 2 1 2 2 3 6 5 6 6 7 8 13 15 19 21 21 17 14 6 7 3 9 8 13 16 16 15 17 16 14 15 11 9 9
11 10 8 6 5 4 5 5 5 6 4 2 2 0 3 3 5 6 5 7 8 12 17 17 16 16 19 10 3 5 4 7 3 3 9 7 12 19 23 20 18 17 12 11 9
14 14 12 10 9 8 8 8 9 7 7 5 3 1 2 4 5 5 7 8 10 10 13 17 18 20 16 8 1 5 6 2 5 9 4 5 15 9 16 17 20 18 13 11 10
17 17 16 15 13 12 11 11 11 9 9 8 5 4 3 4 4 6 7 9 9 9 13 16 15 15 19 6 7 8 9 10 11 2 11 13 13 14 14 14 17 17 14 14 14
18 18 19 18 17 15 14 13 14 10 10 10 8 6 5 6 5 6 7 9 9 10 12 11 14 18 19 14 1 3 5 17 17 26 15 12 9 16 15 11 14 16 12 9 9
19 19 19 19 19 18 17 16 15 11 11 10 10 8 8 5 8 8 9 9 10 11 10 8 10 12 18 20 12 7 5 15 17 28 19 16 9 12 11 7 8 7 9 12 10
18 17 17 18 18 19 20 20 16 13 12 11 10 9 10 9 8 10 11 11 11 10 7 6 7 6 15 27 18 12 4 14 17 15 18 20 17 15 13 9 6 7 14 14 12
20 21 21 22 22 22 21 19 17 15 14 13 12 11 13 10 9 10 11 12 11 11 10 9 11 12 18 16 12 7 7 6 14 22 15 16 16 13 14 13 12 12 12 10 12
18 17 16 17 17 17 17 17 16 15 15 14 13 12 12 10 11 10 11 11 12 13 13 14 21 21 12 6 5 11 10 3 14 20 20 23 8 8 11 8 17 5 6 6 10
17 18 17 15 14 14 14 14 13 13 14 13 14 13 10 11 11 10 11 11 10 14 15 18 23 17 8 7 15 13 8 16 13 18 23 26 13 12 13 11 15 9 4 3 7
17 16 16 15 13 12 12 11 12 11 10 12 12 10 12 11 11 10 10 9 11 14 17 19 21 13 12 7 10 10 10 5 13 21 26 25 17 12 13 11 8 4 14 9 15
19 17 16 15 13 12 13 13 11 9 9 9 9 9 10 10 10 11 10 9 13 15 16 16 20 8 5 15 6 6 7 2 16 23 20 29 18 8 10 18 4 4 4 11 16
20 19 18 16 15 14 14 14 12 10 9 9 9 10 8 9 8 10 11 11 14 15 13 15 15 7 18 9 11 9 4 12 22 25 27 17 21 13 15 5 3 3 6 12 12
20 20 20 18 16 13 16 13 13 11 11 10 8 8 7 7 7 10 10 12 16 16 13 12 11 14 16 10 12 13 13 23 26 23 15 12 18 17 11 15 9 3 4 15 9
21 21 21 20 19 17 16 17 15 12 11 6 7 6 6 6 7 8 11 12 15 17 16 14 6 13 12 12 12 10 17 17 6 9 17 21 23 26 19 14 7 2 8 6 9
23 22 22 21 20 21 20 18 15 11 6 5 5 6 8 7 7 9 10 12 11 11 7 5 2 5 7 9 11 11 8 1 12 14 28 31 24 26 19 16 12 9 7 5 2
22 23 24 23 23 23 22 21 16 13 12 7 11 8 9 9 8 9 11 13 14 14 16 6 8 8 14 9 10 11 5 9 22 32 21 18 16 18 17 11 14 13 10 5 6
21 22 24 24 24 24 25 21 25 23 13 11 21 14 12 11 9 11 11 14 14 14 9 8 13 19 16 10 9 2 5 17 21 30 17 18 0 12 16 14 20 13 11 6 9
19 22 24 25 26 26 25 27 31 25 24 21 11 8 7 9 8 13 12 13 15 15 19 13 7 12 12 19 17 18 12 22 23 25 18 24 29 35 14 13 15 14 10 9 10
17 20 24 26 27 27 22 34 30 34 32 24 25 19 12 5 12 13 14 11 13 14 22 18 12 12 8 13 14 9 16 21 24 20 26 29 32 24 25 27 10 12 9 14 17
16 18 23 25 26 25 25 37 34 36 22 30 32 26 26 25 29 23 16 10 8 16 19 28 21 12 8 15 20 16 23 23 19 24 26 19 25 11 10 1 3 5 7 14 19
16 14 18 21 22 22 25 31 34 39 33 35 33 30 26 31 36 24 16 22 17 26 27 23 34 26 16 20 32 30 17 19 25 22 27 22 5 9 6 4 4 6 13 16 18
18 19 21 21 22 22 27 32 31 31 28 25 39 34 21 13 12 16 25 25 23 28 30 27 17 27 21 26 27 25 24 34 32 32 25 13 17 13 17 8 6 10 14 21 22
24 22 20 24 27 20 20 30 30 15 25 23 30 35 33 25 19 27 26 28 33 30 27 33 26 29 28 31 36 37 32 30 25 21 30 21 27 22 24 14 9 11 15 17 20
25 23 17 23 27 25 24 26 29 25 25 19 24 24 30 30 32 25 23 30 35 34 26 17 21 25 35 28 32 29 31 20 16 14 17 22 21 20 20 20 19 20 19 19 19
24 24 21 20 20 26 27 27 23 19 15 18 14 19 28 36 38 38 33 34 38 31 30 21 21 18 29 23 19 19 17 13 19 12 11 26 32 32 28 26 26 25 22 21 23
Wind_Direction
182 170 165 162 154 116 330 351 6 15 20 16 4 59 107 117 139 136 141 158 172 166 156 151 139 129 133 93 74 90 97 123 349 3 32 12 18 59 15 18 32 19 21 19 18
209 202 198 196 200 253 313 316 284 298 350 8 340 70 110 129 143 139 145 162 162 143 141 142 156 146 127 80 71 102 97 124 243 344 3 11 3 29 44 32 23 15 22 27 21
226 223 220 225 243 266 298 314 305 267 280 316 317 43 125 149 150 150 154 157 152 148 154 149 181 147 96 63 54 301 300 254 24 294 26 356 357 17 26 22 19 12 11 23 23
240 239 239 242 252 268 283 302 311 273 260 267 273 259 169 159 161 166 156 165 172 171 166 164 146 115 85 179 209 315 337 338 13 47 347 20 357 24 26 21 18 16 23 21 23
250 248 247 249 256 265 277 289 303 270 254 255 257 246 206 191 176 179 177 171 186 177 178 178 186 127 134 187 131 230 349 16 30 320 327 47 313 351 12 21 21 18 23 24 20
249 252 250 249 253 261 270 279 294 266 247 243 248 241 213 195 196 192 192 183 190 189 191 194 237 160 149 169 44 208 40 17 18 356 334 339 2 330 346 14 27 16 17 40 26
254 254 252 248 251 257 267 274 280 260 245 239 240 243 233 219 211 203 201 199 196 200 208 185 186 160 142 88 68 78 27 339 359 342 346 329 336 315 334 16 42 33 44 40 48
251 251 251 252 253 259 265 270 263 250 244 242 238 236 239 234 222 218 209 207 202 211 195 225 154 177 136 113 99 72 184 285 332 331 324 337 9 353 346 330 266 54 48 39 38
255 255 257 258 261 264 263 258 247 245 244 243 239 227 226 227 224 221 217 213 208 203 185 169 156 148 126 110 120 195 197 286 324 315 332 320 337 335 306 324 66 18 43 34 47
253 255 257 258 261 261 258 248 238 241 245 238 233 226 227 220 222 217 220 216 206 194 181 161 146 165 138 75 18 146 104 297 296 301 317 317 333 313 297 316 320 330 59 43 49
247 250 255 258 260 258 250 236 236 241 238 233 222 219 221 213 218 214 216 217 210 192 181 164 160 175 125 285 114 143 142 209 270 288 294 311 341 327 305 297 261 53 56 91 46
247 245 245 251 254 249 237 224 229 236 229 213 216 209 213 210 214 215 213 209 200 188 187 171 181 176 53 228 237 244 226 75 270 283 294 314 347 348 340 315 327 345 6 318 258
244 243 241 238 245 234 223 221 222 216 209 199 207 203 207 208 212 212 208 203 189 191 188 179 176 140 303 271 248 161 59 119 240 270 287 308 314 277 357 319 310 295 318 298 305
238 237 238 231 232 233 222 213 213 209 203 199 200 206 201 209 209 208 205 198 192 185 199 192 189 132 247 236 200 149 36 256 261 260 279 275 300 304 354 61 196 208 7 321 330
233 233 232 228 224 219 209 208 213 210 213 196 187 191 198 206 192 190 193 195 191 185 191 193 190 194 226 223 224 204 196 233 249 269 287 245 290 316 315 344 278 328 336 305 324
232 228 229 225 219 215 213 210 200 206 220 160 193 188 189 195 198 185 186 186 197 199 192 196 186 261 216 234 232 234 231 254 323 322 294 285 282 284 293 300 260 233 310 333 331
232 225 225 222 215 210 203 208 199 188 214 205 181 207 204 203 192 179 193 196 201 204 206 221 309 267 267 268 245 240 265 276 321 276 282 267 241 255 256 271 267 234 259 285 342
232 225 222 218 215 211 209 199 185 162 72 328 291 218 214 213 205 192 195 198 198 205 173 112 353 328 303 276 263 239 249 303 284 287 294 283 249 218 230 242 237 212 225 259 282
230 224 221 216 213 211 207 189 164 154 152 209 269 279 222 221 216 207 210 207 209 208 249 183 276 275 273 258 260 299 185 267 276 286 260 290 321 237 249 239 204 214 215 244 280
230 220 217 214 213 211 204 169 169 152 174 159 230 284 237 221 208 239 222 218 216 201 181 177 222 264 247 253 264 265 242 258 255 270 291 300 309 304 249 328 209 214 216 241 255
233 221 214 213 212 211 192 175 178 175 174 184 166 196 229 230 258 245 253 231 224 207 189 190 203 271 291 304 309 248 264 262 273 272 292 289 294 280 271 285 264 223 241 260 264
230 220 216 215 212 208 184 184 193 186 187 182 180 200 194 198 207 229 252 244 244 192 225 218 201 218 286 277 273 219 241 258 259 266 268 269 271 312 22 15 74 257 255 269 271
228 214 219 215 213 204 187 190 207 209 197 192 190 202 213 216 209 203 214 230 238 245 258 243 224 216 215 261 266 259 243 256 267 252 264 287 354 130 49 27 29 301 279 283 290
223 211 208 205 205 210 202 192 205 224 226 211 201 204 203 211 288 201 196 210 236 238 251 256 250 227 225 238 260 259 258 284 269 273 283 286 344 341 345 308 279 263 286 293 292
221 221 212 198 199 191 216 213 207 219 232 220 220 209 204 194 236 219 199 224 224 224 241 256 255 243 227 231 245 250 262 267 256 273 296 322 308 318 304 295 285 306 312 301 294
225 227 212 226 214 190 194 217 228 228 223 221 227 226 217 215 209 235 229 241 242 240 236 241 264 245 248 252 251 263 273 266 235 247 284 277 292 316 303 307 315 315 310 299 297
218 221 216 203 222 216 205 225 232 230 226 209 246 236 221 217 222 224 227 238 242 232 226 213 224 218 254 263 271 285 283 257 255 236 233 281 294 299 305 306 304 309 310 302 300